Powrót do katalogu

STARLINK-38087

AktywnyŁącznośćSSO
NORAD 69743·PAYLOAD·🇺🇸 United States

Wystrzelony Jul 2, 2026 z Vandenberg Space Force Base

Loading…

Następne Przeloty (najbliższe 24 godziny)

TLE

ŚwieżeSource: CelesTrak SupGP

Epoka: Sep 14, 2026, 22:49 UTC

1 69743C 26150E   26257.95118056  .00087997  00000+0  27320-2 0  2572
2 69743  97.2847  97.0000 0001706  92.2853  81.3666 15.33390229    15

Śledź STARLINK-38087 w czasie rzeczywistym z AllMySat

Download on the App Store